[[{"header":{"parameterUnit":"m.s-1","parameterCategory":1,"la1":30.2991,"la2":30.254,"lo1":-89.0895,"lo2":-89.0444,"dy":0.0017,"dx":0.0017,"nx":28,"ny":28,"refTime":"2024-06-28T03:00:00:Z","depth":0,"parameterNumber":2,"parameterNumberName":"U-component_of_WINDS"},"data":[0,0,0,0,0,0,0,0,0,0,0,0,0,0,0,0,0,0,0,0,0,0,0,0,0,0,0,0,0,0,0,0,0,0,0,0,0,0,0,0,0,0,0,0,0,0,0,0,0,0,0,0,0,0,0,0,0,0,3.9578,3.9579,0,3.9691,3.9692,3.9693,3.9572,3.9568,3.9563,3.9559,3.9668,3.9675,3.9682,0,0,0,0,0,0,0,0,0,0,0,0,0,3.9248,3.9255,3.9578,3.9579,3.9581,3.9691,3.9692,3.9694,3.9573,3.9568,3.9562,3.9557,3.9666,3.9674,3.9683,0,0,0,0,0,0,0,0,0,0,0,0,0,3.9379,3.9257,3.9578,3.9534,3.9531,3.969,3.9692,3.9694,3.9574,3.9568,3.9561,3.9554,3.9663,3.9674,3.9684,3.989,0,0,3.9717,3.9722,0,0,0,0,0,0,0,0,3.9372,3.9392,3.9539,3.9537,3.9534,3.9611,3.9616,3.976,3.9576,3.9558,3.9559,3.9551,3.9654,3.9665,3.9702,3.9895,3.99,3.9718,3.9725,3.973,3.9733,0,0,0,0,0,0,0,3.9363,3.9386,3.9622,3.9541,3.9538,3.9506,3.9517,3.9643,3.9643,3.9559,3.955,3.9566,3.9652,3.9692,3.9703,3.9902,3.9718,3.9728,3.9734,3.9739,4.0265,4.0272,0,0,0,0,0,0,3.936,3.9379,3.9619,3.9626,3.9435,3.9517,3.953,3.9593,3.9642,3.9643,3.9572,3.956,3.9676,3.9691,3.9707,3.9948,3.973,3.974,3.9746,4.0257,4.0266,4.0275,0,0,0,0,0,0,3.9354,3.9383,3.9614,3.95,3.9527,3.953,3.9603,3.9599,3.9639,3.9651,3.965,3.9613,3.9672,3.9691,3.9845,3.995,3.9745,3.9754,4.0249,4.026,4.0271,4.0435,0,0,0,0,0,0,3.9345,3.9381,3.9462,3.9503,3.9534,3.9754,3.9609,3.9606,3.9659,3.9644,3.969,3.9691,3.9668,3.9829,3.9856,3.9962,3.9763,4.0239,4.0254,4.0267,4.042,4.045,4.0476,0,0,0,0,0,3.9333,3.9503,3.9467,3.9496,3.9635,3.976,3.9777,3.9749,3.9668,3.9747,3.9754,3.9689,3.9935,3.9846,3.9875,3.9986,4.0232,4.025,4.0266,4.0407,4.0444,4.0476,0,0,0,0,0,0,3.9472,3.9508,3.9468,3.9656,3.9706,3.974,3.9839,3.979,3.9863,3.9846,3.9805,3.9817,3.9979,3.9997,3.9898,4.0185,4.007,4.0093,4.0167,4.0203,4.023,4.0222,3.9772,0,0,0,0,0,3.9525,3.9627,3.9651,3.9815,3.9842,3.9837,3.989,3.9864,3.9913,3.9933,3.9952,4.0,4.0087,4.0146,4.0227,4.0422,4.0428,4.0512,4.054,4.0563,4.0583,4.0684,4.072,4.033,4.033,4.0329,0,0,3.9635,3.9667,3.9733,3.9843,3.9879,3.9981,3.9855,3.997,4.0044,3.9949,4.0096,4.0111,4.0162,4.0336,4.0413,4.0356,4.0692,4.0584,4.0603,4.061,4.0705,4.0742,4.0774,4.0341,4.0339,4.0337,0,0,3.9887,3.9923,4.0062,4.01,4.0156,4.0151,4.0184,4.0225,4.0232,4.0378,4.0308,4.0395,4.0548,4.0586,4.0625,4.0889,4.083,4.0916,4.1062,4.1161,4.1192,4.1219,4.131,4.1344,4.0936,4.0937,4.0937,0,4.0016,4.0171,4.0139,4.0259,4.0307,4.0228,4.0366,4.0403,4.0483,4.0517,4.0452,4.064,4.0668,4.0849,4.0913,4.0948,4.0982,4.091,4.119,4.1217,4.1242,4.1328,4.1363,4.0947,4.0945,4.0944,4.0943,0,4.0324,4.0432,4.0537,4.0617,4.0678,4.0806,4.0791,4.0855,4.0823,4.0824,4.0971,4.1003,4.1088,4.1129,4.1098,4.1304,4.1266,4.1197,4.108,4.1289,4.137,4.1403,4.0961,4.0957,4.0954,4.0952,0,0,4.0669,4.0728,4.0767,4.0801,4.0856,4.0937,4.1059,4.1144,4.1199,4.1255,4.1355,4.1484,4.1419,4.1464,4.1437,4.1524,4.1727,4.1443,4.1443,4.1492,4.1951,4.2003,4.2042,4.1688,4.1695,4.17,4.1946,0,4.092,4.1136,4.111,4.1315,4.1412,4.1336,4.1442,4.1485,4.1488,4.1568,4.157,4.1662,4.1571,4.1597,4.168,4.1685,4.1818,4.1667,4.1778,4.1782,4.1767,4.2084,4.2139,4.2371,4.1978,4.1983,4.1987,0,4.1244,4.1313,4.1528,4.1565,4.1604,4.1701,4.1774,4.1853,4.1899,4.1894,4.1944,4.19,4.2019,4.1901,4.2062,4.196,4.2003,4.2012,4.202,4.2029,4.1897,4.2099,4.2445,4.2479,4.2037,4.2033,4.2029,0,4.147,4.1617,4.1764,4.1795,4.1843,4.1911,4.1934,4.1973,4.2024,4.2088,4.212,4.2196,4.2237,4.2296,4.2272,4.2189,4.2437,4.2318,4.2434,4.2435,4.249,4.2486,4.2845,4.2521,4.252,4.252,4.2519,0,4.1754,4.1888,4.1866,4.1956,4.2103,4.2069,4.2214,4.2226,4.2261,4.235,4.2288,4.2372,4.2337,4.2418,4.24,4.2534,4.2554,4.2551,4.2545,4.2557,4.2557,4.2584,4.2566,4.2529,4.2527,4.2525,4.2523,0,4.2032,4.2023,4.2178,4.221,4.222,4.2327,4.2352,4.2435,4.2432,4.2545,4.2569,4.2565,4.2656,4.2639,4.274,4.2727,4.2895,4.287,4.2881,4.2874,4.2991,4.298,4.3379,4.3428,4.3073,4.3077,4.308,0,4.2213,4.2314,4.2357,4.2412,4.244,4.2531,4.2583,4.2553,4.2609,4.2667,4.2742,4.2828,4.2896,4.3045,4.3048,4.3124,4.3098,4.3233,4.3109,4.3117,4.3098,4.3091,4.31,4.3257,4.3261,4.3264,4.3267,0,4.2533,4.2524,4.2603,4.268,4.2744,4.2803,4.2855,4.2904,4.2877,4.2943,4.3037,4.3089,4.3191,4.3276,4.3346,4.3365,4.3311,4.3306,4.3336,4.3349,4.335,4.3349,4.2946,4.3297,4.3294,4.3292,4.329,4.3289,4.2767,4.2852,4.2895,4.2984,4.302,4.307,4.3149,4.3156,4.3234,4.3317,4.3293,4.3398,4.3437,4.3526,4.3553,4.3632,4.3582,4.3627,4.3638,4.3649,4.3663,4.3339,4.3645,4.3644,4.3643,4.3643,4.3642,0,4.3082,4.3106,4.3188,4.3264,4.3333,4.3278,4.3332,4.3393,4.3487,4.3529,4.3596,4.3702,4.3783,4.3793,4.3869,4.3931,4.3908,4.3952,4.3946,4.3951,4.3705,4.367,4.3969,4.3969,4.3969,4.3969,4.3969,4.3969,4.3255,4.3396,4.3391,4.3547,4.3568,4.3673,4.3708,4.3752,4.3785,4.3906,4.3974,4.3981,4.4009,4.4086,4.4157,4.4157,4.4187,4.424,4.4231,4.4001,4.3968,4.3937,4.3904,4.4248,4.4248,4.447,4.4472,4.4474]},{"header":{"parameterUnit":"m.s-1","parameterCategory":1,"la1":30.2991,"la2":30.254,"lo1":-89.0895,"lo2":-89.0444,"dy":0.0017,"dx":0.0017,"nx":28,"ny":28,"refTime":"2024-06-28T03:00:00:Z","depth":0,"parameterNumber":3,"parameterNumberName":"V-component_of_WINDS"},"data":[0,0,0,0,0,0,0,0,0,0,0,0,0,0,0,0,0,0,0,0,0,0,0,0,0,0,0,0,0,0,0,0,0,0,0,0,0,0,0,0,0,0,0,0,0,0,0,0,0,0,0,0,0,0,0,0,0,0,3.7193,3.7196,0,3.7493,3.7496,3.75,3.7569,3.7567,3.7565,3.7563,3.7876,3.7886,3.7896,0,0,0,0,0,0,0,0,0,0,0,0,0,3.6684,3.6693,3.7193,3.7196,3.72,3.7492,3.7496,3.7501,3.7569,3.7567,3.7564,3.7562,3.7872,3.7885,3.7897,0,0,0,0,0,0,0,0,0,0,0,0,0,3.6936,3.6695,3.7192,3.727,3.7279,3.7492,3.7497,3.7502,3.757,3.7567,3.7564,3.7561,3.7868,3.7883,3.7899,3.8057,0,0,3.7946,3.7952,0,0,0,0,0,0,0,0,3.6922,3.6955,3.7254,3.7265,3.7276,3.749,3.7432,3.7688,3.7571,3.746,3.7563,3.7559,3.775,3.7775,3.7839,3.8071,3.8085,3.7947,3.7956,3.7963,3.7967,0,0,0,0,0,0,0,3.6904,3.6942,3.7312,3.7259,3.7272,3.7291,3.7323,3.7481,3.7619,3.7469,3.7475,3.7509,3.7756,3.7824,3.7847,3.8089,3.7947,3.796,3.797,3.7976,3.8464,3.8468,0,0,0,0,0,0,3.6873,3.6927,3.7302,3.7321,3.7087,3.7302,3.7339,3.7425,3.7618,3.7644,3.7512,3.7511,3.7799,3.7828,3.7858,3.8054,3.7963,3.7977,3.7986,3.8461,3.8465,3.8469,0,0,0,0,0,0,3.6861,3.6905,3.729,3.7126,3.7176,3.7314,3.7411,3.7432,3.75,3.765,3.7675,3.7555,3.7798,3.7836,3.8006,3.8066,3.7984,3.7998,3.8456,3.8462,3.8467,3.8448,0,0,0,0,0,0,3.6846,3.6901,3.6961,3.7126,3.7184,3.7432,3.7414,3.744,3.7526,3.7528,3.7697,3.7722,3.7798,3.7982,3.8021,3.8086,3.801,3.8452,3.8459,3.8466,3.8444,3.8452,3.846,0,0,0,0,0,3.6828,3.6946,3.6964,3.7009,3.7263,3.7435,3.7469,3.7552,3.753,3.7593,3.7689,3.7717,3.8053,3.7999,3.8043,3.8113,3.8448,3.8457,3.8465,3.8441,3.8451,3.8459,0,0,0,0,0,0,3.6787,3.6969,3.6991,3.7166,3.7284,3.7446,3.7528,3.756,3.7689,3.7686,3.7785,3.7823,3.7986,3.8067,3.8004,3.8275,3.825,3.8268,3.8216,3.8227,3.8235,3.8212,3.8023,0,0,0,0,0,3.6798,3.6921,3.7074,3.7213,3.7271,3.7389,3.7467,3.752,3.7648,3.7699,3.7807,3.7931,3.8065,3.8151,3.8282,3.8456,3.8493,3.8526,3.8534,3.8539,3.8553,3.865,3.8666,3.8497,3.8497,3.8497,0,0,3.6823,3.6937,3.7009,3.7208,3.7306,3.7432,3.7431,3.7565,3.766,3.772,3.7886,3.7969,3.8114,3.8286,3.8367,3.8359,3.8608,3.855,3.8553,3.8565,3.866,3.8676,3.869,3.8503,3.8502,3.8501,0,0,3.6931,3.703,3.7156,3.7254,3.7401,3.7478,3.7508,3.7665,3.7722,3.789,3.7937,3.8052,3.828,3.838,3.8461,3.8605,3.8636,3.8646,3.8686,3.8779,3.8792,3.8804,3.8855,3.8872,3.8659,3.8659,3.8659,0,3.6944,3.7134,3.7218,3.7349,3.7434,3.7492,3.762,3.7712,3.7895,3.7953,3.794,3.8226,3.8328,3.8523,3.8557,3.8622,3.8659,3.8627,3.8783,3.8796,3.8809,3.8858,3.8877,3.8659,3.8659,3.8659,3.8659,0,3.7142,3.7273,3.7357,3.7529,3.7625,3.7754,3.7858,3.7944,3.7989,3.8067,3.8236,3.836,3.8516,3.8567,3.8613,3.8768,3.8758,3.8763,3.874,3.8824,3.8871,3.8891,3.8659,3.8659,3.8659,3.8659,0,0,3.7235,3.7449,3.7479,3.7557,3.7722,3.7826,3.7957,3.8108,3.818,3.8304,3.8417,3.8607,3.8611,3.8703,3.8761,3.8842,3.8946,3.8838,3.8842,3.8852,3.9124,3.9118,3.9139,3.8967,3.8971,3.8974,3.9111,0,3.7363,3.7598,3.7676,3.7871,3.7993,3.8048,3.8163,3.8277,3.8353,3.8469,3.8554,3.8686,3.8683,3.8739,3.8822,3.8916,3.9002,3.8907,3.9073,3.9078,3.9035,3.9164,3.916,3.9283,3.913,3.9134,3.9136,0,3.7545,3.7668,3.7875,3.8022,3.8077,3.8178,3.8321,3.843,3.8561,3.8611,3.8711,3.8762,3.8902,3.8869,3.9063,3.8997,3.9069,3.9125,3.9132,3.9151,3.9112,3.9185,3.9325,3.9342,3.9167,3.9164,3.9162,0,3.7591,3.7809,3.796,3.8025,3.8202,3.8272,3.8349,3.8476,3.8561,3.8686,3.8742,3.8883,3.896,3.9068,3.9155,3.9123,3.9341,3.9316,3.9386,3.9384,3.943,3.9426,3.9581,3.9477,3.9477,3.9476,3.9476,0,3.7726,3.785,3.7982,3.8075,3.8216,3.8304,3.8441,3.8522,3.8634,3.8744,3.8801,3.8904,3.9013,3.913,3.9199,3.9348,3.9383,3.9428,3.9445,3.9423,3.9417,3.9471,3.9465,3.9481,3.948,3.9479,3.9478,0,3.7801,3.7895,3.8063,3.8215,3.8256,3.8353,3.8484,3.8577,3.8654,3.8793,3.883,3.8953,3.9093,3.919,3.9372,3.9418,3.9579,3.9595,3.9534,3.9542,3.9606,3.9598,3.9803,3.9834,3.9708,3.9709,3.971,0,3.7881,3.7977,3.8138,3.8215,3.8291,3.8414,3.85,3.8591,3.8678,3.8832,3.8906,3.9049,3.9169,3.939,3.9496,3.9634,3.9654,3.9716,3.9675,3.9649,3.9654,3.9647,3.9656,3.9722,3.9723,3.9723,3.9724,0,3.8012,3.8053,3.8173,3.8309,3.8409,3.8521,3.8634,3.8694,3.8805,3.89,3.9042,3.9134,3.9317,3.9459,3.9606,3.9687,3.9724,3.9736,3.9759,3.9737,3.9697,3.9719,3.955,3.9731,3.973,3.973,3.9729,3.9729,3.8092,3.8179,3.8305,3.8437,3.8531,3.8634,3.8728,3.8816,3.8935,3.909,3.9136,3.9284,3.9411,3.9612,3.9695,3.9812,3.9808,3.9842,3.9851,3.9858,3.9856,3.9678,3.9839,3.9839,3.9839,3.9839,3.9839,0,3.8226,3.8309,3.8429,3.8583,3.8686,3.871,3.8835,3.892,3.9049,3.9163,3.9278,3.9441,3.9578,3.9693,3.9835,3.9906,3.9927,3.994,3.9936,3.9954,3.9853,3.9818,3.9921,3.9921,3.9921,3.9921,3.9921,3.9921,3.8307,3.8455,3.8511,3.8705,3.8789,3.8932,3.9001,3.9097,3.9188,3.9366,3.9479,3.9553,3.9667,3.9817,3.9943,3.9974,4.0023,4.0032,4.0067,3.997,3.9961,3.9952,3.992,4.0043,4.0043,4.0158,4.0159,4.016]}]]